Location: downtown San Diego
(32.7310°N, 117.1990°W)
Time: 03:44:14
(UTC-07:00)

Meteor 2-5 Rocket - Pass Details

Date: 14 June 2018
Orbit: 834 x 911 km, 81.2° (Epoch: 18 June)

Event Time Altitude Azimuth Distance (km) Brightness Sun altitude
Exits shadow 22:10:06 33° 187° (S) 1,474 4.6 -22.3°
Maximum altitude 22:12:55 89° 270° (W) 915 3.8 -22.7°
Drops below altitude 10° 22:18:54 10° 8° (N) 2,601 6.8 -23.5°
Sets 22:21:22 0° 8° (N) 3,542 7.6 -23.8°
